Location: 10033 Water Well
(34.0865°N, 106.8959°W)
Time: 17:17:10
(UTC+00:00)

COSMO-SKYMED 1 - Visible Passes

Search period start: 11 April 2026 00:00
Search period end: 21 April 2026 00:00
Orbit: 576 x 578 km, 97.9° (Epoch: 11 April)

Date Brightness Start Highest point End Pass type
(mag) Time Alt. Az. Time Alt. Az. Time Alt. Az.
11 Apr 5.9 02:45:18 10° NW 02:47:25 14° WNW 02:49:31 10° W visible
11 Apr 5.8 11:54:53 10° ESE 11:57:22 16° ENE 11:59:52 10° NNE visible
12 Apr 6.1 02:49:33 10° NW 02:51:18 13° WNW 02:53:03 10° W visible
12 Apr 5.7 11:58:33 10° ESE 12:01:17 18° ENE 12:04:01 10° NNE visible
13 Apr 6.2 02:53:56 10° NW 02:55:12 11° WNW 02:56:27 10° W visible
13 Apr 5.7 12:02:14 10° ESE 12:05:10 19° ENE 12:08:07 10° NNE visible
14 Apr 6.4 02:58:56 10° WNW 02:59:04 10° WNW 02:59:14 10° WNW visible
14 Apr 5.5 12:05:58 10° ESE 12:09:04 21° ENE 12:12:12 10° NNE visible
15 Apr 5.4 12:09:42 10° SE 12:12:58 24° ENE 12:16:15 10° NNE visible
